Regional Weather Roundup
Issued by NWS Goodland, KS

Home | Current Version | Previous Version | Graphics & Text | Print | Product List | Glossary On
Versions: 1 2 3 4 5 6 7 8 9 10 11 12 13 14 15 16 17 18 19 20 21 22 23 24 25 26 27 28 29 30 31 32 33 34 35 36 37 38 39 40 41 42 43 44 45 46 47 48 49 50
000
ASUS43 KGLD 200559
RWRGLD

GOODLAND FORECAST AREA HOURLY WEATHER ROUNDUP
NATIONAL WEATHER SERVICE GOODLAND KS
1200 AM MDT SAT SEP 20 2014

...OFFICIAL OBSERVATIONS...

CITY           SKY/WX    TMP DP  RH WIND       PRES   REMARKS
GOODLAND KS    PTCLDY    68  61  78 S14       29.97S
HILL CITY KS   CLEAR     74  59  59 SW10      29.92R
IMPERIAL NEB   CLOUDY    73  60  63 S13       29.90S
MCCOOK NEB     PTCLDY    72  59  63 S10       29.89R
AKRON CO       CLOUDY    66  54  65 S13       30.02S
BURLINGTON CO  CLEAR     65  59  81 S8        30.01R
LIMON CO       MOCLDY    59  44  57 N8        30.08R
$$

...UNOFFICIAL OBSERVATIONS...

CITY           SKY/WX    TMP DP  RH WIND       PRES   REMARKS
COLBY KS       CLEAR     72  64  78 S9        29.95F
GOVE KS          N/A     72  32  23 MISG        N/A
NORTON KS      CLEAR     73  54  49 S13       29.89R
SHARON SPRINGS   N/A     68  62  79 S12         N/A
WAKEENEY KS      N/A     72  55  55 MISG        N/A
TRENTON NEB      N/A     74  32  21 SW12        N/A
KIT CARSON CO    N/A     66  58  76 CALM        N/A
YUMA CO          N/A     71  50  47 SW13G26     N/A
$$



USA.gov is the U.S. government's official web portal to all federal, state and local government web resources and services.